Regional Weather Roundup
Issued by NWS

Home | Current Version | Previous Version | Text Only | Print | Product List | Glossary On
Versions: 1 2 3 4 5 6 7 8 9 10 11 12 13 14 15 16 17 18 19 20 21 22 23 24 25 26 27 28 29 30 31 32 33 34 35 36 37 38 39 40 41 42 43 44 45 46 47 48 49 50
000
ASUS44 KFWD 011315
RWRTX
NORTH TEXAS HOURLY WEATHER ROUNDUP
NATIONAL WEATHER SERVICE FORT WORTH TX
700 AM CST SUN MAR 01 2015

NOTE: "FAIR" INDICATES FEW OR NO CLOUDS BELOW 12,000 FEET WITH NO
SIGNIFICANT WEATHER AND/OR OBSTRUCTIONS TO VISIBILITY.

TXZ118-119-011400-
DALLAS/FORT WORTH METROPLEX

CITY           SKY/WX    TMP DP  RH WIND       PRES   REMARKS
DFW AIRPORT    FRZ DRZL  32  31  96 N8        30.31R FOG     WCI  25
DALLAS LOVE    LGT RAIN  33  32  96 N6        30.32S VSB 3/4 WCI  28
FTW MEACHAM    CLOUDY    33  30  88 N10       30.31S WCI  25
DAL-EXECUTIVE  CLOUDY    32  32 100 N6        30.30R FOG     WCI  26
FTW-ALLIANCE   FRZ DRZL  32  31  96 N6        30.31S FOG     WCI  26
FTW-SPINKS     DRZL/FOG  32  32 100 N7        30.32S VSB 1   WCI  26
ARLINGTON      LGT RAIN  34  30  85 N8        30.32R FOG     WCI  27
ADDISON        CLOUDY    32  30  93 N7        30.32R FOG     WCI  26
MESQUITE       DRIZZLE   34  34 100 N6        30.32  FOG     WCI  29
LANCASTER      RAIN      33  32  95 N7        30.32S WCI  27
$$

TXZ091>094-102>105-117-120-121-131>134-011400-
NORTH CENTRAL TEXAS

CITY           SKY/WX    TMP DP  RH WIND       PRES   REMARKS
SHRMAN/DENISON CLOUDY    34  34 100 CALM      30.33S FOG
GAINESVILLE    MIX PCPN  31  31  99 N5        30.35R WCI  26
BOWIE          CLOUDY    31  30  98 N5        30.32R FOG     WCI  26
BRIDGEPORT     CLOUDY    31  31 100 CALM      30.34S FOG
DECATUR        CLOUDY    31  31 100 N6        30.30S FOG     WCI  25
DENTON         MIX PCPN  32  31  96 N7        30.32F FOG     WCI  26
MCKINNEY       CLOUDY    33  32  96 N6        30.32R FOG     WCI  28
GREENVILLE     CLOUDY    34  32  93 N3        30.32R FOG
TERRELL        LGT RAIN  36  33  89 N8        30.32S FOG     WCI  30
WAXAHACHIE     DRIZZLE   32  32 100 N7        30.32R WCI  26
CLEBURNE       LGT RAIN  32  32 100 CALM      30.31R
GRANBURY       CLOUDY    33  32  96 NW5       30.32S FOG     WCI  29
$$

TXZ083>090-098>101-113>116-127>130-139>142-154-155-011400-
WESTERN NORTH TEXAS

CITY           SKY/WX    TMP DP  RH WIND       PRES   REMARKS
WICHITA FALLS  CLOUDY    30  28  92 N6        30.33R FOG     WCI  24
WF-KICKAPOO    CLOUDY    32  31  96 N7        30.34S FOG     WCI  26
VERNON         CLOUDY    29  26  86 N3        30.34R
ABILENE        CLOUDY    29  28  96 N6        30.28R FOG     WCI  23
ABILENE-DYESS  CLOUDY    29  28  95 CALM      30.27R
BRECKENRIDGE   CLOUDY    32  32 100 MISG      30.31S FOG
GRAHAM         CLOUDY    31  31 100 N5        30.30S FOG     WCI  26
MINERAL WELLS  CLOUDY    31  30  96 N6        30.31R FOG     WCI  25
STEPHENVILLE   CLOUDY    32  30  94 N5        30.31R WCI  27
COMANCHE       CLOUDY    31  31 100 N7        30.28S FOG     WCI  24
BROWNWOOD      CLOUDY    32  32 100 MISG      30.29R FOG
COLEMAN        CLOUDY    32  32 100 N8        30.27R FOG     WCI  25
$$

TXZ143>147-156>162-174-175-011400-
CENTRAL TEXAS

CITY           SKY/WX    TMP DP  RH WIND       PRES   REMARKS
WACO           CLOUDY    34  33  96 N8        30.29S FOG     WCI  27
WACO-MCGREGOR    N/A     34  28  80 N10       30.29S WCI  26
HILLSBORO      CLOUDY    34  32  93 N7        30.29R FOG     WCI  28
CORSICANA      CLOUDY    36  33  89 N8        30.29S FOG     WCI  30
MEXIA          CLOUDY    34  33  98 MISG      30.27R FOG
HEARNE         CLOUDY    37  36  98 NW6       30.27R FOG     WCI  32
CAMERON        CLOUDY    36  35  99 N9        30.27S FOG     WCI  29
TEMPLE         CLOUDY    34  30  86 N12       30.26R WCI  25
KILLEEN        NOT AVBL
KILLEEN-SKYLRK CLOUDY    34  28  80 N8        30.25S WCI  27
FORT HOOD      LGT SNOW  34  34 100 N9        30.25S VSB 1   WCI  26
GATESVILLE     CLOUDY    34  34 100 N3        30.30S FOG
HAMILTON       CLOUDY    33  33 100 N7        30.28R FOG     WCI  26
$$

TXZ095>097-106>112-122>126-135>138-148>153-164>167-011400-
EAST TEXAS

CITY           SKY/WX    TMP DP  RH WIND       PRES   REMARKS
PARIS          CLOUDY    34  30  86 CALM      30.33R
SULPHUR SPRNGS CLOUDY    36  36 100 NE5       30.34R FOG     WCI  32
MOUNT PLEASANT   N/A     36  36 100 NE5       30.33R WCI  32
GILMER         CLOUDY    35  34  98 N3        30.31R FOG
MINEOLA        CLOUDY    36  36 100 CALM      30.31S FOG
TYLER          CLOUDY    36  33  89 N7        30.28S FOG     WCI  30
LONGVIEW       CLOUDY    38  34  85 N6        30.29R FOG     WCI  33
MARSHALL       CLOUDY    38  36  91 CALM      30.30S
ATHENS         CLOUDY    34  34 100 N7        30.29R FOG     WCI  28
PALESTINE      CLOUDY    37  37 100 N6        30.28S FOG     WCI  33
JACKSONVILLE   CLOUDY    37  37  98 N6        30.28R FOG     WCI  33
HENDERSON      CLOUDY    37  37  97 N5        30.29R WCI  34
NACOGDOCHES    CLOUDY    43  37  81 CALM      30.26F
LUFKIN         CLOUDY    48  43  82 N5        30.25S
$$

SUPPLEMENTAL OBSERVATIONS (CENTRAL)

CITY           SKY/WX    TMP DP  RH WIND       PRES   REMARKS
$$

SUPPLEMENTAL OBSERVATIONS (WEST)

CITY           SKY/WX    TMP DP  RH WIND       PRES   REMARKS
$$

SUPPLEMENTAL OBSERVATIONS (EAST)

CITY           SKY/WX    TMP DP  RH WIND       PRES   REMARKS
$$

SUPPLEMENTAL OBSERVATIONS ARE A COLLECTION OF AUTOMATED INSTRUMENTS
THAT ARE MAINTAINED BY A VARIETY OF FEDERAL AND STATE AGENCIES.
CERTAIN ELEMENTS...SUCH AS HUMIDITY VALUES AND SUSTAINED WIND
SPEEDS...MAY BE APPROXIMATED.



USA.gov is the U.S. government's official web portal to all federal, state and local government web resources and services.